Regional Weather Roundup
Issued by NWS

Home | Current Version | Previous Version | Graphics & Text | Print | Product List | Glossary On
Versions: 1 2 3 4 5 6 7 8 9 10 11 12 13 14 15 16 17 18 19 20 21 22 23 24 25 26 27 28 29 30 31 32 33 34 35 36 37 38 39 40 41 42 43 44 45 46 47 48 49 50
000
ASUS45 KABQ 191510
RWRNM
WEATHER ROUNDUP FOR NEW MEXICO
NATIONAL WEATHER SERVICE ALBUQUERQUE NM
800 AM MST FRI DEC 19 2014

NOTE: "FAIR" MEANS FEW OR NO CLOUDS BELOW 12,000 FEET AGL WITH NO
       SIGNIFICANT WEATHER OR OBSTRUCTIONS TO VISION.

      THIS PRODUCT IS RELEASED AS TWO VERSIONS.  ONE VERSION NEAR
      THE TOP OF THE HOUR CONTAINING PRELIMINARY DATA FROM ALBUQUERQUE
      AND OTHER STATIONS.  A FINAL VERSION WITH ADDITIONAL DATA IS
      ISSUED ABOUT 10 MINUTES AFTER THE HOUR.

NMZ501-503-504-510>518-191600-
NORTHWEST PLATEAU/NORTHCENTRAL MOUNTAINS

CITY           SKY/WX    TMP DP  RH WIND       PRES   REMARKS
FARMINGTON     FOG       24  22  91 E5        30.24R VSB 1/4 WCI  18
LOS ALAMOS     PTCLDY    24  21  88 CALM      30.17R
SANTA FE       CLEAR     26  21  81 N10       30.16R WCI  16
TAOS           CLOUDY    18  12  79 CALM      30.19R
ANGEL FIRE     FAIR       0  -4  85 CALM      30.14S

$$
NMZ402-403-502-505>509-191600-
WESTCENTRAL MOUNTAINS/SOUTHWEST MOUNTAINS

CITY           SKY/WX    TMP DP  RH WIND       PRES   REMARKS
GALLUP         PTCLDY    20  12  71 E3        30.25R
GRANTS         CLOUDY    24  22  89 NW8       30.24S WCI  15
SILVER CITY    CLEAR     30  28  93 NW6       30.21R WCI  24

$$
NMZ407-409-411-412-191600-
SOUTHERN DESERTS

CITY           SKY/WX    TMP DP  RH WIND       PRES   REMARKS
LORDSBURG      FOG       32  32 100 NW7       30.21S VSB 1/4 WCI  26
DEMING         CLEAR     29  29 100 CALM      30.20R
LAS CRUCES     CLEAR     37  37  97 N5        30.21R WCI  34
HOLLOMAN AFB   PTCLDY    34  34  99 NW6       30.20R WCI  29
ALAMOGORDO     PTCLDY    36  36 100 N8        30.20S WCI  29
T OR C         CLEAR     34  27  75 NW8       30.21R WCI  27

$$
NMZ519>523-191600-
CENTRAL VALLEYS/CENTRAL HIGHLANDS

CITY           SKY/WX    TMP DP  RH WIND       PRES   REMARKS
ALBUQUERQUE    PTCLDY    34  25  69 N5        30.22R WCI  30
DOUBLE EAGLE   PTCLDY    32  23  69 NW16      30.21R WCI  21
MORIARTY ARPT  FAIR      29  23  79 W8        30.18R WCI  21
CLINES CORNERS CLEAR     24  21  88 NW20      30.10R WCI  10
BELEN          FAIR      26  25  94 N3        30.22S
SOCORRO        FAIR      31  28  87 N3        30.22R

$$
NMZ524>526-539-540-191600-
SOUTHCENTRAL MOUNTAINS

CITY           SKY/WX    TMP DP  RH WIND       PRES   REMARKS
RUIDOSO        CLEAR     28  23  80 NW8G18    30.17R WCI  20

$$
NMZ527>531-191600-
NORTHEAST HIGHLANDS/NORTHEAST PLAINS

CITY           SKY/WX    TMP DP  RH WIND       PRES   REMARKS
LAS VEGAS      PTCLDY    25  16  68 N5        30.11R WCI  19
RATON          CLEAR     22  18  85 NE3       30.10R
CLAYTON        CLEAR     31  27  85 CALM      30.09S

$$
NMZ532>537-191600-
EASTCENTRAL PLAINS

CITY           SKY/WX    TMP DP  RH WIND       PRES   REMARKS
TUCUMCARI      CLOUDY    35  30  82 N8        30.13R WCI  29
CANNON AFB     NOT AVBL
CLOVIS AIRPORT CLOUDY    36  34  93 SE5       30.12S WCI  32

$$
NMZ028-029-538-191600-
SOUTHEAST PLAINS

CITY           SKY/WX    TMP DP  RH WIND       PRES   REMARKS
ROSWELL        SUNNY     35  29  78 CALM      30.15R
ARTESIA        SUNNY     37  34  87 W5        30.17R WCI  34
CARLSBAD       SUNNY     41  34  76 N3        30.15R
HOBBS          FOG       34  34 100 CALM      30.17R VSB 1/8


$$


USA.gov is the U.S. government's official web portal to all federal, state and local government web resources and services.